| time (UTC) | temp C | wind direction | speed KPH | gust KPH | rain 1hr cm | rain 24hr cm | rain mn cm | humidity % | barometer mb |
| 20260503200756 | 17 | 158 | 3.2 | 6.4 | 0.00 | 0.00 | 0.00 | 40 | 1015.0 |
| 20260503200256 | 17 | 155 | 4.8 | 8.0 | 0.00 | 0.00 | 0.00 | 40 | 1015.0 |
| 20260503195756 | 17 | 171 | 1.6 | 3.2 | 0.00 | 0.00 | 0.00 | 40 | 1015.0 |
| 20260503195256 | 17 | 263 | 1.6 | 3.2 | 0.00 | 0.00 | 0.00 | 40 | 1016.0 |
| 20260503194756 | 17 | 208 | 1.6 | 4.8 | 0.00 | 0.00 | 0.00 | 42 | 1016.0 |
| 20260503194256 | 17 | 281 | 4.8 | 14.5 | 0.00 | 0.00 | 0.00 | 40 | 1016.0 |
| 20260503193756 | 16 | 223 | 3.2 | 6.4 | 0.00 | 0.00 | 0.00 | 43 | 1016.0 |
| 20260503193256 | 16 | 132 | 3.2 | 6.4 | 0.00 | 0.00 | 0.00 | 43 | 1016.0 |
| 20260503192757 | 16 | 196 | 3.2 | 6.4 | 0.00 | 0.00 | 0.00 | 41 | 1016.0 |
| 20260503192256 | 16 | 207 | 4.8 | 11.3 | 0.00 | 0.00 | 0.00 | 42 | 1016.0 |
| 20260503191756 | 16 | 217 | 0.0 | 3.2 | 0.00 | 0.00 | 0.00 | 41 | 1016.0 |
| 20260503191259 | 16 | 160 | 1.6 | 3.2 | 0.00 | 0.00 | 0.00 | 39 | 1016.0 |
| 20260503190756 | 16 | 223 | 1.6 | 3.2 | 0.00 | 0.00 | 0.00 | 44 | 1017.0 |
| 20260503190256 | 16 | 231 | 1.6 | 9.7 | 0.00 | 0.00 | 0.00 | 42 | 1017.0 |
| 20260503185756 | 16 | 236 | 1.6 | 3.2 | 0.00 | 0.00 | 0.00 | 40 | 1017.0 |
| 20260503185256 | 17 | 146 | 3.2 | 6.4 | 0.00 | 0.00 | 0.00 | 39 | 1017.0 |
| 20260503184757 | 17 | 207 | 3.2 | 4.8 | 0.00 | 0.00 | 0.00 | 39 | 1017.0 |
| 20260503184256 | 17 | 276 | 3.2 | 9.7 | 0.00 | 0.00 | 0.00 | 40 | 1017.0 |
| 20260503183756 | 17 | 152 | 3.2 | 9.7 | 0.00 | 0.00 | 0.00 | 42 | 1017.0 |
| 20260503183257 | 17 | 182 | 3.2 | 6.4 | 0.00 | 0.00 | 0.00 | 38 | 1017.0 |
| 20260503182756 | 17 | 171 | 3.2 | 4.8 | 0.00 | 0.00 | 0.00 | 41 | 1017.0 |
| 20260503182256 | 17 | 156 | 3.2 | 6.4 | 0.00 | 0.00 | 0.00 | 41 | 1017.0 |
| 20260503181756 | 16 | 183 | 3.2 | 4.8 | 0.00 | 0.00 | 0.00 | 41 | 1017.0 |
| 20260503181256 | 16 | 228 | 3.2 | 6.4 | 0.00 | 0.00 | 0.00 | 39 | 1017.0 |
| 20260503180757 | 16 | 178 | 1.6 | 4.8 | 0.00 | 0.00 | 0.00 | 40 | 1017.0 |
| 20260503180256 | 16 | 148 | 1.6 | 3.2 | 0.00 | 0.00 | 0.00 | 40 | 1017.0 |
| 20260503175756 | 16 | 181 | 3.2 | 6.4 | 0.00 | 0.00 | 0.00 | 40 | 1018.0 |
| 20260503175256 | 17 | 166 | 3.2 | 6.4 | 0.00 | 0.00 | 0.00 | 40 | 1018.0 |
| 20260503174757 | 17 | 176 | 3.2 | 4.8 | 0.00 | 0.00 | 0.00 | 39 | 1018.0 |
| 20260503174256 | 16 | 196 | 1.6 | 4.8 | 0.00 | 0.00 | 0.00 | 39 | 1018.0 |
| 20260503173756 | 16 | 153 | 3.2 | 6.4 | 0.00 | 0.00 | 0.00 | 40 | 1018.0 |
| 20260503173256 | 16 | 229 | 3.2 | 3.2 | 0.00 | 0.00 | 0.00 | 40 | 1018.0 |
| 20260503172756 | 16 | 194 | 1.6 | 4.8 | 0.00 | 0.00 | 0.00 | 39 | 1018.0 |
| 20260503172256 | 16 | 201 | 3.2 | 4.8 | 0.00 | 0.00 | 0.00 | 41 | 1018.0 |
| 20260503171756 | 16 | 171 | 3.2 | 8.0 | 0.00 | 0.00 | 0.00 | 39 | 1018.0 |
| 20260503171257 | 16 | 250 | 4.8 | 11.3 | 0.00 | 0.00 | 0.00 | 39 | 1018.0 |
| 20260503170756 | 16 | 166 | 3.2 | 4.8 | 0.00 | 0.00 | 0.00 | 40 | 1018.0 |
| 20260503170257 | 16 | 191 | 4.8 | 6.4 | 0.00 | 0.00 | 0.00 | 38 | 1018.0 |
| 20260503150756 | 15 | 267 | 0.0 | 1.6 | 0.00 | 0.00 | 0.00 | 46 | 1020.0 |
| 20260503150256 | 15 | 261 | 1.6 | 6.4 | 0.00 | 0.00 | 0.00 | 45 | 1020.0 |
| 20260503140256 | 12 | 156 | 1.6 | 4.8 | 0.00 | 0.00 | 0.00 | 55 | 1020.0 |
| 20260503131256 | 7 | 175 | 0.0 | 1.6 | 0.00 | 0.00 | 0.00 | 73 | 1020.0 |
| 20260503130756 | 6 | 186 | 1.6 | 3.2 | 0.00 | 0.00 | 0.00 | 74 | 1020.0 |
| 20260503130256 | 6 | 253 | 1.6 | 3.2 | 0.00 | 0.00 | 0.00 | 74 | 1020.0 |
| 20260503110756 | 1 | 245 | 0.0 | 1.6 | 0.00 | 0.00 | 0.00 | 91 | 1019.0 |
| 20260503110257 | 1 | 231 | 0.0 | 1.6 | 0.00 | 0.00 | 0.00 | 92 | 1019.0 |
| 20260503100256 | 1 | 309 | 0.0 | 3.2 | 0.00 | 0.00 | 0.00 | 94 | 1018.0 |
| 20260503090256 | 0 | 353 | 0.0 | 1.6 | 0.00 | 0.00 | 0.00 | 97 | 1018.0 |
| 20260503081256 | 1 | 287 | 0.0 | 1.6 | 0.00 | 0.00 | 0.00 | 94 | 1018.0 |
| 20260503080756 | 1 | 341 | 0.0 | 1.6 | 0.00 | 0.00 | 0.00 | 94 | 1018.0 |
| 20260503080257 | 1 | 0 | 0.0 | 0.0 | 0.00 | 0.00 | 0.00 | 93 | 1018.0 |
| 20260503072756 | 1 | 328 | 0.0 | 1.6 | 0.00 | 0.00 | 0.00 | 90 | 1018.0 |
| 20260503072301 | 1 | 62 | 0.0 | 0.0 | 0.00 | 0.00 | 0.00 | 90 | 1018.0 |
| 20260503071756 | 1 | 38 | 0.0 | 1.6 | 0.00 | 0.00 | 0.00 | 89 | 1018.0 |
| 20260503071256 | 1 | 0 | 0.0 | 0.0 | 0.00 | 0.00 | 0.00 | 88 | 1018.0 |
| 20260503070756 | 1 | 342 | 0.0 | 1.6 | 0.00 | 0.00 | 0.00 | 88 | 1018.0 |
| 20260503070256 | 1 | 329 | 0.0 | 1.6 | 0.00 | 0.00 | 0.00 | 90 | 1018.0 |
| 20260503060256 | 2 | 6 | 0.0 | 0.0 | 0.00 | 0.00 | 0.00 | 89 | 1019.0 |
| 20260503054756 | 2 | 20 | 0.0 | 1.6 | 0.00 | 0.00 | 0.00 | 92 | 1019.0 |
| 20260503054256 | 2 | 297 | 0.0 | 1.6 | 0.00 | 0.00 | 0.00 | 92 | 1019.0 |
| 20260503053757 | 2 | 0 | 0.0 | 0.0 | 0.00 | 0.00 | 0.00 | 92 | 1019.0 |
| 20260503053256 | 2 | 288 | 0.0 | 1.6 | 0.00 | 0.00 | 0.00 | 91 | 1019.0 |
| 20260503052756 | 2 | 27 | 0.0 | 1.6 | 0.00 | 0.00 | 0.00 | 90 | 1019.0 |
| 20260503052256 | 2 | 301 | 0.0 | 1.6 | 0.00 | 0.00 | 0.00 | 90 | 1019.0 |
| 20260503051756 | 2 | 255 | 0.0 | 1.6 | 0.00 | 0.00 | 0.00 | 91 | 1019.0 |
| 20260503051257 | 2 | 331 | 0.0 | 1.6 | 0.00 | 0.00 | 0.00 | 90 | 1019.0 |
| 20260503050756 | 2 | 0 | 0.0 | 0.0 | 0.00 | 0.00 | 0.00 | 91 | 1019.0 |
| 20260503050256 | 2 | 0 | 0.0 | 0.0 | 0.00 | 0.00 | 0.00 | 91 | 1019.0 |
| 20260503045756 | 2 | 234 | 0.0 | 0.0 | 0.00 | 0.00 | 0.00 | 90 | 1019.0 |
| 20260503045256 | 2 | 337 | 0.0 | 1.6 | 0.00 | 0.00 | 0.00 | 92 | 1019.0 |
| 20260503044756 | 2 | 0 | 0.0 | 0.0 | 0.00 | 0.00 | 0.00 | 89 | 1019.0 |
| 20260503044256 | 2 | 19 | 0.0 | 0.0 | 0.00 | 0.00 | 0.00 | 90 | 1019.0 |
| 20260503043756 | 2 | 276 | 0.0 | 1.6 | 0.00 | 0.00 | 0.00 | 89 | 1019.0 |
| 20260503043256 | 2 | 0 | 0.0 | 0.0 | 0.00 | 0.00 | 0.00 | 89 | 1019.0 |
| 20260503042756 | 2 | 278 | 0.0 | 1.6 | 0.00 | 0.00 | 0.00 | 92 | 1019.0 |
| 20260503042256 | 2 | 0 | 0.0 | 0.0 | 0.00 | 0.00 | 0.00 | 92 | 1019.0 |
| 20260503041756 | 2 | 0 | 0.0 | 0.0 | 0.00 | 0.00 | 0.00 | 91 | 1019.0 |
| 20260503041256 | 2 | 0 | 0.0 | 0.0 | 0.00 | 0.00 | 0.00 | 90 | 1019.0 |
| 20260503040756 | 2 | 143 | 0.0 | 0.0 | 0.00 | 0.00 | 0.00 | 89 | 1019.0 |
| 20260503040256 | 2 | 269 | 0.0 | 1.6 | 0.00 | 0.00 | 0.00 | 89 | 1019.0 |
| 20260503035757 | 2 | 219 | 0.0 | 0.0 | 0.00 | 0.00 | 0.00 | 86 | 1019.0 |
| 20260503035256 | 2 | 0 | 0.0 | 0.0 | 0.00 | 0.00 | 0.00 | 87 | 1019.0 |
| 20260503034756 | 3 | 304 | 0.0 | 0.0 | 0.00 | 0.00 | 0.00 | 88 | 1019.0 |
| 20260503034256 | 3 | 257 | 0.0 | 0.0 | 0.00 | 0.00 | 0.00 | 87 | 1019.0 |
| 20260503033756 | 3 | 217 | 0.0 | 0.0 | 0.00 | 0.00 | 0.00 | 85 | 1019.0 |
| 20260503033257 | 3 | 290 | 0.0 | 1.6 | 0.00 | 0.00 | 0.00 | 84 | 1019.0 |
| 20260503032756 | 3 | 67 | 0.0 | 1.6 | 0.00 | 0.00 | 0.00 | 85 | 1019.0 |
| 20260503032258 | 3 | 0 | 0.0 | 0.0 | 0.00 | 0.00 | 0.00 | 85 | 1019.0 |
| 20260503031756 | 3 | 0 | 0.0 | 0.0 | 0.00 | 0.00 | 0.00 | 87 | 1019.0 |
| 20260503031256 | 3 | 71 | 0.0 | 1.6 | 0.00 | 0.00 | 0.00 | 86 | 1019.0 |
| 20260503030756 | 3 | 145 | 0.0 | 1.6 | 0.00 | 0.00 | 0.00 | 86 | 1019.0 |
| 20260503030257 | 3 | 0 | 0.0 | 0.0 | 0.00 | 0.00 | 0.00 | 86 | 1019.0 |
| 20260503025756 | 3 | 321 | 0.0 | 1.6 | 0.00 | 0.00 | 0.00 | 87 | 1019.0 |
| 20260503025256 | 3 | 0 | 0.0 | 0.0 | 0.00 | 0.00 | 0.00 | 86 | 1019.0 |
| 20260503024757 | 3 | 0 | 0.0 | 0.0 | 0.00 | 0.00 | 0.00 | 87 | 1019.0 |
| 20260503024256 | 3 | 126 | 0.0 | 1.6 | 0.00 | 0.00 | 0.00 | 86 | 1019.0 |
| 20260503023756 | 3 | 169 | 0.0 | 0.0 | 0.00 | 0.00 | 0.00 | 85 | 1019.0 |
| 20260503023256 | 3 | 88 | 0.0 | 0.0 | 0.00 | 0.00 | 0.00 | 84 | 1019.0 |
| 20260503022756 | 3 | 91 | 0.0 | 1.6 | 0.00 | 0.00 | 0.00 | 83 | 1019.0 |
| 20260503022257 | 3 | 0 | 0.0 | 0.0 | 0.00 | 0.00 | 0.00 | 82 | 1019.0 |
| 20260503021756 | 4 | 70 | 0.0 | 1.6 | 0.00 | 0.00 | 0.00 | 83 | 1019.0 |
| 20260503021256 | 4 | 24 | 0.0 | 0.0 | 0.00 | 0.00 | 0.00 | 81 | 1019.0 |
| 20260503020756 | 4 | 36 | 0.0 | 1.6 | 0.00 | 0.00 | 0.00 | 80 | 1018.0 |
| 20260503020256 | 4 | 0 | 0.0 | 0.0 | 0.00 | 0.00 | 0.00 | 78 | 1018.0 |
| 20260503015756 | 4 | 15 | 0.0 | 1.6 | 0.00 | 0.00 | 0.00 | 78 | 1018.0 |
| 20260503015256 | 5 | 0 | 0.0 | 0.0 | 0.00 | 0.00 | 0.00 | 77 | 1018.0 |
| 20260503014757 | 5 | 47 | 0.0 | 1.6 | 0.00 | 0.00 | 0.00 | 75 | 1018.0 |
| 20260503014256 | 5 | 0 | 0.0 | 0.0 | 0.00 | 0.00 | 0.00 | 75 | 1018.0 |
| 20260503013756 | 5 | 0 | 0.0 | 0.0 | 0.00 | 0.00 | 0.00 | 74 | 1018.0 |
| 20260503013256 | 5 | 0 | 0.0 | 0.0 | 0.00 | 0.00 | 0.00 | 75 | 1018.0 |
| 20260503012756 | 5 | 15 | 0.0 | 0.0 | 0.00 | 0.00 | 0.00 | 71 | 1018.0 |
| 20260503012257 | 6 | 0 | 0.0 | 0.0 | 0.00 | 0.00 | 0.00 | 70 | 1018.0 |
| 20260503011757 | 6 | 0 | 0.0 | 0.0 | 0.00 | 0.00 | 0.00 | 70 | 1018.0 |
| 20260503011256 | 6 | 0 | 0.0 | 0.0 | 0.00 | 0.00 | 0.00 | 67 | 1018.0 |
| 20260503010756 | 6 | 80 | 0.0 | 1.6 | 0.00 | 0.00 | 0.00 | 66 | 1018.0 |
| 20260503010256 | 7 | 92 | 0.0 | 0.0 | 0.00 | 0.00 | 0.00 | 66 | 1018.0 |
| 20260503005756 | 7 | 0 | 0.0 | 0.0 | 0.00 | 0.00 | 0.00 | 64 | 1018.0 |
| 20260503005256 | 7 | 117 | 0.0 | 3.2 | 0.00 | 0.00 | 0.00 | 62 | 1018.0 |
| 20260503004758 | 7 | 102 | 0.0 | 0.0 | 0.00 | 0.00 | 0.00 | 60 | 1018.0 |
| 20260503004256 | 8 | 348 | 0.0 | 3.2 | 0.00 | 0.00 | 0.00 | 57 | 1018.0 |
| 20260503003756 | 8 | 332 | 0.0 | 1.6 | 0.00 | 0.00 | 0.00 | 59 | 1018.0 |
| 20260503003256 | 8 | 3 | 0.0 | 1.6 | 0.00 | 0.00 | 0.00 | 57 | 1018.0 |
| 20260503002756 | 8 | 38 | 0.0 | 1.6 | 0.00 | 0.00 | 0.00 | 57 | 1018.0 |
| 20260503002257 | 8 | 0 | 0.0 | 0.0 | 0.00 | 0.00 | 0.00 | 55 | 1018.0 |
| 20260503001757 | 8 | 167 | 1.6 | 4.8 | 0.00 | 0.00 | 0.00 | 54 | 1018.0 |
| 20260503001256 | 9 | 330 | 3.2 | 3.2 | 0.00 | 0.00 | 0.00 | 52 | 1018.0 |
| 20260503000756 | 9 | 241 | 0.0 | 1.6 | 0.00 | 0.00 | 0.00 | 55 | 1018.0 |
| 20260503000256 | 9 | 310 | 1.6 | 3.2 | 0.00 | 0.00 | 0.00 | 54 | 1018.0 |
| 20260502235756 | 9 | 319 | 0.0 | 1.6 | 0.00 | 0.00 | 0.00 | 54 | 1018.0 |
| 20260502235256 | 9 | 291 | 1.6 | 4.8 | 0.00 | 0.00 | 0.00 | 53 | 1017.0 |
| 20260502234756 | 10 | 323 | 1.6 | 4.8 | 0.00 | 0.00 | 0.00 | 53 | 1017.0 |
| 20260502234256 | 10 | 301 | 1.6 | 4.8 | 0.00 | 0.00 | 0.00 | 53 | 1017.0 |
| 20260502233756 | 10 | 130 | 1.6 | 3.2 | 0.00 | 0.00 | 0.00 | 51 | 1017.0 |
| 20260502233257 | 11 | 89 | 0.0 | 3.2 | 0.00 | 0.00 | 0.00 | 50 | 1017.0 |
| 20260502232756 | 11 | 323 | 3.2 | 4.8 | 0.00 | 0.00 | 0.00 | 48 | 1017.0 |
| 20260502232256 | 11 | 0 | 4.8 | 8.0 | 0.00 | 0.00 | 0.00 | 47 | 1017.0 |
| 20260502231756 | 11 | 334 | 1.6 | 3.2 | 0.00 | 0.00 | 0.00 | 49 | 1017.0 |
| 20260502231255 | 10 | 315 | 3.2 | 6.4 | 0.00 | 0.00 | 0.00 | 49 | 1017.0 |
| 20260502230756 | 10 | 40 | 3.2 | 4.8 | 0.00 | 0.00 | 0.00 | 51 | 1017.0 |
| 20260502230256 | 10 | 277 | 0.0 | 3.2 | 0.00 | 0.00 | 0.00 | 51 | 1017.0 |
| 20260502225756 | 10 | 238 | 0.0 | 3.2 | 0.00 | 0.00 | 0.00 | 50 | 1017.0 |
| 20260502225256 | 11 | 241 | 1.6 | 6.4 | 0.00 | 0.00 | 0.00 | 49 | 1017.0 |
| 20260502224756 | 11 | 331 | 1.6 | 6.4 | 0.00 | 0.00 | 0.00 | 49 | 1017.0 |
| 20260502224256 | 11 | 279 | 3.2 | 6.4 | 0.00 | 0.00 | 0.00 | 48 | 1017.0 |
| 20260502223756 | 11 | 89 | 0.0 | 3.2 | 0.00 | 0.00 | 0.00 | 48 | 1017.0 |
| 20260502223256 | 11 | 257 | 3.2 | 6.4 | 0.00 | 0.00 | 0.00 | 46 | 1017.0 |
| 20260502222756 | 12 | 351 | 1.6 | 6.4 | 0.00 | 0.00 | 0.00 | 48 | 1017.0 |
| 20260502222256 | 12 | 42 | 3.2 | 6.4 | 0.00 | 0.00 | 0.00 | 46 | 1017.0 |
| 20260502221756 | 12 | 187 | 3.2 | 4.8 | 0.00 | 0.00 | 0.00 | 46 | 1017.0 |
| 20260502221256 | 11 | 284 | 3.2 | 6.4 | 0.00 | 0.00 | 0.00 | 47 | 1017.0 |
| 20260502220756 | 11 | 278 | 3.2 | 6.4 | 0.00 | 0.00 | 0.00 | 48 | 1017.0 |
| 20260502220256 | 11 | 319 | 3.2 | 6.4 | 0.00 | 0.00 | 0.00 | 47 | 1017.0 |
| 20260502215756 | 11 | 321 | 0.0 | 3.2 | 0.00 | 0.00 | 0.00 | 48 | 1017.0 |
| 20260502215256 | 12 | 254 | 6.4 | 12.9 | 0.00 | 0.00 | 0.00 | 44 | 1017.0 |
| 20260502214756 | 11 | 283 | 3.2 | 4.8 | 0.00 | 0.00 | 0.00 | 46 | 1017.0 |
| 20260502214256 | 11 | 297 | 1.6 | 4.8 | 0.00 | 0.00 | 0.00 | 47 | 1017.0 |
| 20260502213756 | 11 | 339 | 4.8 | 8.0 | 0.00 | 0.00 | 0.00 | 46 | 1017.0 |
| 20260502213256 | 11 | 182 | 1.6 | 3.2 | 0.00 | 0.00 | 0.00 | 46 | 1017.0 |
| 20260502212756 | 11 | 326 | 3.2 | 8.0 | 0.00 | 0.00 | 0.00 | 46 | 1017.0 |
| 20260502212256 | 12 | 236 | 4.8 | 11.3 | 0.00 | 0.00 | 0.00 | 45 | 1017.0 |
| 20260502211756 | 12 | 305 | 3.2 | 8.0 | 0.00 | 0.00 | 0.00 | 46 | 1017.0 |
| 20260502211259 | 12 | 93 | 1.6 | 3.2 | 0.00 | 0.00 | 0.00 | 46 | 1017.0 |
| 20260502210801 | 12 | 270 | 3.2 | 4.8 | 0.00 | 0.00 | 0.00 | 45 | 1017.0 |
| 20260502210256 | 12 | 270 | 3.2 | 6.4 | 0.00 | 0.00 | 0.00 | 47 | 1017.0 |
| 20260502205756 | 13 | 299 | 1.6 | 3.2 | 0.00 | 0.00 | 0.00 | 46 | 1017.0 |
| 20260502205257 | 13 | 318 | 1.6 | 4.8 | 0.00 | 0.00 | 0.00 | 43 | 1017.0 |
| 20260502204800 | 13 | 275 | 0.0 | 1.6 | 0.00 | 0.00 | 0.00 | 46 | 1017.0 |
| 20260502204256 | 13 | 264 | 4.8 | 9.7 | 0.00 | 0.00 | 0.00 | 41 | 1017.0 |
| 20260502203756 | 12 | 69 | 0.0 | 3.2 | 0.00 | 0.00 | 0.00 | 46 | 1017.0 |
| 20260502203256 | 12 | 238 | 1.6 | 4.8 | 0.00 | 0.00 | 0.00 | 48 | 1017.0 |
| 20260502202756 | 12 | 282 | 3.2 | 8.0 | 0.00 | 0.00 | 0.00 | 43 | 1017.0 |
| 20260502202256 | 12 | 327 | 3.2 | 6.4 | 0.00 | 0.00 | 0.00 | 45 | 1017.0 |
| 20260502201756 | 12 | 255 | 4.8 | 8.0 | 0.00 | 0.00 | 0.00 | 44 | 1017.0 |
| 20260502201256 | 12 | 276 | 4.8 | 11.3 | 0.00 | 0.00 | 0.00 | 43 | 1017.0 |